Location: Biçisarri
(42.4820°N, 1.4605°E)
Time: 15:48:58
(UTC+00:00)

Cosmos 2098 Rocket - Pass Details

Date: 20 November 2025
Orbit: 350 x 871 km, 82.9° (Epoch: 12 December)

Event Time Altitude Azimuth Distance (km) Brightness Sun altitude
Rises 06:02:04 0° 1° (N) 2,882 6.3 -9.3°
Reaches altitude 10° 06:04:18 10° 10° (N) 2,058 5.7 -8.9°
Maximum altitude 06:08:37 38° 79° (ENE) 1,100 5.0 -8.1°
Drops below altitude 10° 06:13:30 10° 146° (SE) 2,341 6.9 -7.3°
Sets 06:16:11 0° 154° (SSE) 3,333 7.6 -6.8°
